Radiation Dose at Monitoring Post of Fukushima Daini Nuclear Power Station
Date,Time,MP-1(microSv/h),MP-2(microSv/h),MP-3(microSv/h),MP-4(microSv/h),MP-5(microSv/h),MP-6(microSv/h),MP-7(microSv/h),Wind Direction,Wind Velocity(m/s),Rain
2023/02/16,00:00,0.152,0.137,0.213,0.209,0.211,0.121,0.078,west-northwest,5.5,No
2023/02/16,00:10,0.153,0.137,0.212,0.210,0.210,0.121,0.077,west-northwest,6.2,No
2023/02/16,00:20,0.154,0.137,0.214,0.210,0.210,0.121,0.077,west-northwest,6.2,No
2023/02/16,00:30,0.152,0.137,0.213,0.208,0.211,0.121,0.077,west-northwest,6.1,No
2023/02/16,00:40,0.153,0.137,0.213,0.208,0.210,0.120,0.077,west-northwest,4.9,No
2023/02/16,00:50,0.153,0.137,0.213,0.209,0.211,0.121,0.078,west-northwest,4.7,No
2023/02/16,01:00,0.152,0.137,0.212,0.208,0.211,0.121,0.078,west-northwest,4.3,No
2023/02/16,01:10,0.153,0.137,0.213,0.210,0.210,0.120,0.077,west-northwest,4.4,No
2023/02/16,01:20,0.153,0.137,0.213,0.208,0.210,0.121,0.078,west-northwest,4.6,No
2023/02/16,01:30,0.152,0.136,0.213,0.209,0.211,0.121,0.077,northwest,4.8,No
2023/02/16,01:40,0.153,0.136,0.212,0.209,0.211,0.121,0.078,west-northwest,4.8,No
2023/02/16,01:50,0.152,0.137,0.213,0.209,0.210,0.120,0.077,west-northwest,4.6,No
2023/02/16,02:00,0.152,0.137,0.213,0.208,0.211,0.121,0.078,west-northwest,4.5,No
2023/02/16,02:10,0.152,0.137,0.212,0.209,0.210,0.120,0.077,west-northwest,4.0,No
2023/02/16,02:20,0.152,0.137,0.212,0.209,0.211,0.120,0.077,west-northwest,4.7,No
2023/02/16,02:30,0.152,0.136,0.212,0.209,0.211,0.120,0.077,northwest,4.7,No
2023/02/16,02:40,0.153,0.138,0.213,0.209,0.211,0.121,0.077,west-northwest,3.4,No
2023/02/16,02:50,0.152,0.137,0.213,0.208,0.210,0.121,0.078,west-northwest,2.9,No
2023/02/16,03:00,0.152,0.137,0.213,0.209,0.211,0.121,0.077,west-northwest,3.1,No
2023/02/16,03:10,0.152,0.137,0.214,0.210,0.211,0.120,0.077,west-northwest,3.2,No
2023/02/16,03:20,0.151,0.137,0.212,0.209,0.212,0.120,0.078,northwest,4.3,No
2023/02/16,03:30,0.152,0.137,0.213,0.208,0.210,0.121,0.078,northwest,4.4,No
2023/02/16,03:40,0.152,0.137,0.211,0.209,0.211,0.121,0.078,northwest,4.8,No
2023/02/16,03:50,0.152,0.137,0.211,0.209,0.212,0.120,0.077,northwest,5.4,No
2023/02/16,04:00,0.153,0.136,0.212,0.209,0.210,0.121,0.077,northwest,5.3,No
2023/02/16,04:10,0.153,0.136,0.212,0.209,0.210,0.120,0.077,northwest,5.4,No
2023/02/16,04:20,0.152,0.137,0.213,0.209,0.211,0.121,0.078,northwest,5.6,No
2023/02/16,04:30,0.152,0.137,0.213,0.209,0.210,0.120,0.077,northwest,5.4,No
2023/02/16,04:40,0.152,0.137,0.212,0.208,0.210,0.120,0.077,northwest,5.5,No
2023/02/16,04:50,0.152,0.136,0.213,0.208,0.210,0.120,0.077,northwest,5.6,No
2023/02/16,05:00,0.152,0.137,0.212,0.209,0.209,0.121,0.077,northwest,4.4,No
2023/02/16,05:10,0.152,0.137,0.214,0.209,0.210,0.120,0.077,northwest,4.0,No
2023/02/16,05:20,0.152,0.137,0.211,0.208,0.210,0.120,0.077,northwest,3.9,No
2023/02/16,05:30,0.153,0.136,0.213,0.208,0.211,0.120,0.077,northwest,3.8,No
2023/02/16,05:40,0.153,0.137,0.212,0.209,0.211,0.120,0.077,northwest,4.3,No
2023/02/16,05:50,0.153,0.137,0.213,0.209,0.210,0.121,0.077,north-northwest,4.6,No
2023/02/16,06:00,0.153,0.136,0.213,0.208,0.211,0.120,0.077,northwest,4.9,No
2023/02/16,06:10,0.153,0.138,0.212,0.208,0.210,0.120,0.077,northwest,4.9,No
2023/02/16,06:20,0.153,0.136,0.211,0.209,0.210,0.120,0.077,northwest,4.8,No
2023/02/16,06:30,0.153,0.137,0.213,0.208,0.210,0.120,0.077,northwest,3.9,No
2023/02/16,06:40,0.152,0.137,0.212,0.208,0.209,0.120,0.078,northwest,4.5,No
2023/02/16,06:50,0.153,0.136,0.212,0.209,0.210,0.120,0.078,northwest,4.1,No
2023/02/16,07:00,0.153,0.136,0.212,0.209,0.210,0.121,0.078,northwest,3.9,No
2023/02/16,07:10,0.152,0.138,0.212,0.209,0.209,0.120,0.078,northwest,3.8,No
2023/02/16,07:20,0.152,0.137,0.213,0.207,0.210,0.120,0.077,northwest,3.8,No
2023/02/16,07:30,0.151,0.137,0.211,0.208,0.210,0.121,0.077,northwest,4.9,No
2023/02/16,07:40,0.152,0.137,0.211,0.208,0.210,0.120,0.077,northwest,5.7,No
2023/02/16,07:50,0.153,0.136,0.212,0.208,0.210,0.119,0.077,northwest,5.0,No
2023/02/16,08:00,0.152,0.137,0.212,0.208,0.210,0.120,0.078,northwest,4.9,No
2023/02/16,08:10,0.153,0.137,0.213,0.208,0.209,0.119,0.076,north-northwest,4.0,No
2023/02/16,08:20,0.151,0.137,0.213,0.207,0.211,0.120,0.076,north-northwest,3.7,No
2023/02/16,08:30,0.153,0.137,0.211,0.208,0.211,0.119,0.077,north,2.2,No
2023/02/16,08:40,0.153,0.137,0.212,0.208,0.210,0.120,0.077,north-northwest,1.6,No
2023/02/16,08:50,0.152,0.136,0.211,0.208,0.211,0.120,0.078,north,1.1,No
2023/02/16,09:00,0.152,0.136,0.212,0.208,0.210,0.120,0.077,north-northwest,1.2,No
2023/02/16,09:10,0.153,0.138,0.212,0.208,0.210,0.120,0.077,north,2.3,No
2023/02/16,09:20,0.153,0.137,0.212,0.208,0.212,0.120,0.077,northwest,1.8,No
2023/02/16,09:30,0.152,0.136,0.212,0.207,0.211,0.120,0.077,north-northeast,1.7,No
2023/02/16,09:40,0.151,0.137,0.213,0.208,0.210,0.120,0.077,northwest,3.4,No
2023/02/16,09:50,0.151,0.137,0.212,0.207,0.210,0.120,0.077,west-northwest,4.3,No
2023/02/16,10:00,0.151,0.137,0.212,0.207,0.210,0.119,0.078,west-northwest,5.9,No
2023/02/16,10:10,0.152,0.136,0.211,0.207,0.210,0.120,0.077,west-northwest,6.0,No
2023/02/16,10:20,0.151,0.137,0.211,0.209,0.209,0.120,0.078,west-northwest,3.6,No
2023/02/16,10:30,0.151,0.136,0.212,0.208,0.211,0.120,0.078,northwest,6.4,No
2023/02/16,10:40,0.152,0.137,0.211,0.209,0.210,0.120,0.077,northwest,4.2,No
2023/02/16,10:50,0.152,0.136,0.211,0.209,0.210,0.121,0.077,northwest,3.9,No
2023/02/16,11:00,0.152,0.137,0.211,0.208,0.212,0.119,0.076,west-northwest,3.4,No
2023/02/16,11:10,0.152,0.136,0.211,0.208,0.211,0.120,0.077,northwest,4.4,No
2023/02/16,11:20,0.152,0.137,0.211,0.209,0.211,0.120,0.077,north-northwest,3.8,No
2023/02/16,11:30,0.152,0.137,0.212,0.208,0.212,0.119,0.078,northwest,2.0,No
2023/02/16,11:40,0.151,0.136,0.211,0.209,0.211,0.120,0.078,northwest,2.1,No
2023/02/16,11:50,0.152,0.136,0.211,0.209,0.211,0.119,0.077,west-northwest,2.4,No
2023/02/16,12:00,0.152,0.136,0.211,0.209,0.211,0.120,0.077,east-northeast,1.2,No
2023/02/16,12:10,0.151,0.137,0.212,0.208,0.210,0.120,0.077,east,1.8,No
2023/02/16,12:20,0.152,0.138,0.211,0.208,0.212,0.120,0.077,east-southeast,2.4,No
2023/02/16,12:30,0.152,0.137,0.211,0.207,0.211,0.121,0.078,east-northeast,3.2,No
2023/02/16,12:40,0.153,0.138,0.213,0.208,0.211,0.120,0.077,east-northeast,1.4,No
2023/02/16,12:50,0.152,0.138,0.212,0.208,0.210,0.120,0.077,east-southeast,2.2,No
2023/02/16,13:00,0.152,0.138,0.212,0.209,0.210,0.122,0.077,east-southeast,2.3,No
2023/02/16,13:10,0.152,0.137,0.213,0.209,0.211,0.120,0.077,east-southeast,1.8,No
2023/02/16,13:20,0.152,0.137,0.212,0.208,0.210,0.120,0.077,east-northeast,1.6,No
2023/02/16,13:30,0.151,0.137,0.212,0.209,0.212,0.121,0.077,east-northeast,1.4,No
2023/02/16,13:40,0.151,0.136,0.214,0.210,0.210,0.120,0.078,east-northeast,2.0,No
2023/02/16,13:50,0.152,0.137,0.214,0.208,0.211,0.121,0.077,east-northeast,2.5,No
2023/02/16,14:00,0.152,0.138,0.213,0.209,0.211,0.120,0.077,east-northeast,2.9,No
2023/02/16,14:10,0.152,0.136,0.213,0.209,0.211,0.120,0.077,northeast,2.9,No
2023/02/16,14:20,0.152,0.136,0.212,0.208,0.211,0.121,0.077,east-northeast,1.5,No
2023/02/16,14:30,0.152,0.136,0.212,0.210,0.211,0.121,0.077,east-northeast,2.4,No
2023/02/16,14:40,0.153,0.136,0.213,0.209,0.213,0.121,0.077,northeast,2.5,No
2023/02/16,14:50,0.152,0.138,0.213,0.209,0.212,0.121,0.077,east-northeast,1.4,No
2023/02/16,15:00,0.151,0.137,0.215,0.210,0.211,0.121,0.078,east-southeast,1.2,No
2023/02/16,15:10,0.152,0.136,0.214,0.210,0.211,0.121,0.078,east,1.9,No
2023/02/16,15:20,0.152,0.137,0.213,0.211,0.211,0.120,0.077,east,3.0,No
2023/02/16,15:30,0.151,0.137,0.213,0.210,0.210,0.120,0.077,east-northeast,2.1,No
2023/02/16,15:40,0.152,0.137,0.213,0.210,0.211,0.121,0.078,east-northeast,2.1,No
2023/02/16,15:50,0.153,0.138,0.213,0.210,0.212,0.120,0.077,east,1.3,No
2023/02/16,16:00,0.152,0.137,0.213,0.209,0.211,0.121,0.077,-,CALM,No
2023/02/16,16:10,0.151,0.137,0.212,0.210,0.211,0.121,0.078,south,0.8,No
2023/02/16,16:20,0.153,0.137,0.213,0.210,0.212,0.121,0.077,west,1.6,No
2023/02/16,16:30,0.152,0.137,0.213,0.210,0.211,0.121,0.077,west,3.5,No
2023/02/16,16:40,0.152,0.137,0.213,0.209,0.210,0.121,0.077,west-northwest,3.4,No
2023/02/16,16:50,0.153,0.137,0.213,0.209,0.211,0.122,0.077,west,2.3,No
2023/02/16,17:00,0.152,0.137,0.212,0.210,0.212,0.121,0.076,west,2.5,No
2023/02/16,17:10,0.153,0.137,0.213,0.209,0.211,0.121,0.077,west,5.8,No
2023/02/16,17:20,0.152,0.137,0.212,0.210,0.209,0.120,0.076,west,9.5,No
2023/02/16,17:30,0.152,0.137,0.213,0.210,0.211,0.121,0.077,west,10.0,No
2023/02/16,17:40,0.153,0.137,0.214,0.210,0.210,0.120,0.077,west-northwest,9.6,No
2023/02/16,17:50,0.152,0.135,0.213,0.210,0.212,0.121,0.077,west-northwest,9.5,No
2023/02/16,18:00,0.152,0.137,0.213,0.209,0.211,0.121,0.077,west,9.0,No
2023/02/16,18:10,0.152,0.137,0.213,0.209,0.210,0.120,0.078,west-northwest,7.4,No
2023/02/16,18:20,0.152,0.137,0.213,0.210,0.212,0.120,0.076,west-northwest,8.8,No
2023/02/16,18:30,0.152,0.136,0.214,0.209,0.212,0.121,0.077,west,10.3,No
2023/02/16,18:40,0.152,0.137,0.213,0.209,0.211,0.121,0.077,west-northwest,10.7,No
2023/02/16,18:50,0.153,0.137,0.213,0.210,0.212,0.120,0.077,west-northwest,7.0,No
2023/02/16,19:00,0.152,0.137,0.214,0.209,0.210,0.121,0.077,west-northwest,6.8,No
2023/02/16,19:10,0.152,0.137,0.214,0.209,0.212,0.121,0.076,west-northwest,8.4,No
2023/02/16,19:20,0.153,0.137,0.214,0.210,0.211,0.121,0.077,northwest,5.1,No
2023/02/16,19:30,0.152,0.136,0.212,0.209,0.211,0.121,0.077,west-northwest,3.9,No
2023/02/16,19:40,0.152,0.137,0.213,0.210,0.212,0.121,0.077,west-northwest,4.2,No
2023/02/16,19:50,0.153,0.137,0.213,0.209,0.210,0.121,0.078,northwest,4.3,No
2023/02/16,20:00,0.152,0.136,0.213,0.211,0.211,0.120,0.077,northwest,5.1,No
2023/02/16,20:10,0.153,0.137,0.213,0.210,0.212,0.121,0.077,northwest,5.0,No
2023/02/16,20:20,0.152,0.137,0.214,0.209,0.211,0.121,0.077,northwest,5.4,No
2023/02/16,20:30,0.153,0.138,0.213,0.210,0.210,0.121,0.077,northwest,4.4,No
2023/02/16,20:40,0.152,0.137,0.213,0.209,0.211,0.120,0.078,northwest,3.0,No
2023/02/16,20:50,0.153,0.137,0.214,0.209,0.212,0.121,0.077,north-northwest,2.6,No
2023/02/16,21:00,0.152,0.137,0.213,0.210,0.211,0.120,0.077,north-northwest,1.9,No
2023/02/16,21:10,0.152,0.137,0.213,0.211,0.210,0.121,0.077,northwest,1.9,No
2023/02/16,21:20,0.152,0.136,0.214,0.209,0.211,0.120,0.078,northwest,2.2,No
2023/02/16,21:30,0.152,0.136,0.214,0.209,0.211,0.120,0.078,northwest,2.4,No
2023/02/16,21:40,0.153,0.137,0.212,0.210,0.212,0.120,0.077,west-northwest,2.3,No
2023/02/16,21:50,0.152,0.137,0.212,0.209,0.210,0.121,0.077,west-northwest,1.6,No
2023/02/16,22:00,0.152,0.137,0.213,0.210,0.210,0.121,0.077,west-northwest,1.6,No
2023/02/16,22:10,0.153,0.136,0.214,0.209,0.211,0.121,0.077,west-northwest,2.1,No
2023/02/16,22:20,0.152,0.138,0.214,0.211,0.211,0.120,0.078,west-northwest,2.3,No
2023/02/16,22:30,0.152,0.137,0.214,0.210,0.210,0.121,0.076,west-northwest,3.4,No
2023/02/16,22:40,0.152,0.136,0.215,0.209,0.211,0.121,0.077,west-northwest,3.1,No
2023/02/16,22:50,0.153,0.136,0.213,0.210,0.211,0.121,0.077,west,1.6,No
2023/02/16,23:00,0.153,0.137,0.214,0.210,0.211,0.120,0.077,west,2.5,No
2023/02/16,23:10,0.153,0.136,0.213,0.209,0.211,0.121,0.077,west-northwest,2.2,No
2023/02/16,23:20,0.152,0.137,0.214,0.208,0.210,0.121,0.077,west-northwest,1.5,No
2023/02/16,23:30,0.153,0.137,0.213,0.210,0.210,0.119,0.077,west,1.1,No
2023/02/16,23:40,0.153,0.136,0.212,0.209,0.210,0.120,0.077,northwest,0.8,No
2023/02/16,23:50,0.153,0.137,0.213,0.210,0.211,0.121,0.078,north-northeast,0.9,No
